Find Kosmos-1434

NORAD ID: 13766 Int'l Des: 1983-002 Owner: GUKOS Country: SU operational
LEOCIRCULAR

Live Position

Loading 3D Globe...

About Kosmos-1434

Description loading...

Upcoming Passes

Passes for default location (London). Set your location on the main map for personalized predictions.

Altitude History

Loading altitude history...

Two-Line Element Set

1 13766U 83002F 26106.72502109 -.00000025 00000-0 -53747-4 0 9996
2 13766 74.0222 262.1518 0023665 327.3015 43.7987 12.53822403979373
Epoch: Apr 16, 2026 • Age: 20 hours

Current Status

Altitude 1471.9 km
Velocity 7.12 km/s
Sub-Earth Point 38.45°N, 23.8°E
Launch Date Jan 19, 1983
Age 43.2 years
Type other

Technical Details

Classification Payload
Mass 60.00 kg
Dry Mass 60.00 kg
Total Mass 60.00 kg
Length 0.80 m
Diameter 0.80 m
Span 0.80 m
Shape Poly
Manufacturer NPOPM
Bus Type Strela-1 11F625
Phase Status In Orbit
Owner/State GUKOS/SU

Most Searched